Home   Weather   Southampton   Past weeks

Flag for United Kingdom Past Weather in Southampton, England, United Kingdom — Yesterday and Last 2 Weeks

Now
59 °F

Passing clouds.


Feels Like: 60 °F
Forecast: 54 / 66 °F
Wind: 3 mph from North

Location: Southampton / Weather Centre

Current Time: Jul 22, 2017 at 9:55:44 am

Latest Report: Jul 22, 2017 at 9:20 am


Visibility: N/A

Pressure: 29.74 "Hg

Humidity: 82%

Dew Point: 54 °F

Location of SouthamptonLocation

Past Weather in Southampton — Graph

°F

Southampton Temperature Yesterday

Maximum temperature yesterday: 64 °F (at 9:20 am)
Minimum temperature yesterday: 57 °F (at 9:50 pm)
Average temperature yesterday: 61 °F

High & Low Weather Summary for the Past Weeks

 TemperatureHumidityPressure
High79 °F (Jul 18, 2:20 pm)100% (Jul 22, 6:50 am)30.24 "Hg (Jul 22, 6:50 am)
Low50 °F (Jul 22, 6:20 am)36% (Jul 17, 1:20 pm)29.65 "Hg (Jul 19, 6:20 am)
Average65 °F67%29.97 "Hg
* Reported Jul 7 8:20 am — Jul 22 8:50 am, Southampton. Weather by CustomWeather, © 2017

Note: Actual official high and low records may vary slightly from our data, if they occured in-between our weather recording intervals... More about our weather records

Advertising

Southampton Weather History for the Previous 24 Hours

Scroll right to see more
 ConditionsComfort  
Time TempWeatherWind HumidityBarometerVisibility
8:50 am
Sat, Jul 22
55 °FPassing clouds.1 mph88%29.74 "HgN/A
8:20 am55 °FScattered showers. Passing clouds.2 mph88%29.74 "HgN/A
7:50 am55 °FSprinkles. Passing clouds.2 mph94%29.74 "HgN/A
7:20 am55 °FScattered showers. Passing clouds.1 mph94%29.74 "HgN/A
6:50 am50 °FSprinkles. Scattered clouds.No wind100%29.74 "HgN/A
6:20 am50 °FScattered showers. Scattered clouds.No wind94%29.74 "HgN/A
10:50 pm
Fri, Jul 21
57 °FPassing clouds.9 mph88%29.68 "HgN/A
10:20 pm57 °FLight rain. Passing clouds.10 mph88%29.68 "HgN/A
9:50 pm57 °FRain. Partly cloudy.10 mph94%29.68 "Hg4 mi
9:20 pm59 °FRain. Passing clouds.8 mph94%29.68 "Hg4 mi
8:50 pm59 °FLight rain. Broken clouds.9 mph88%29.68 "Hg4 mi
8:20 pm59 °FLight rain. Broken clouds.10 mph94%29.68 "Hg4 mi
7:50 pm59 °FRain. Broken clouds.8 mph94%29.68 "Hg4 mi
7:20 pm59 °FLight rain. Broken clouds.10 mph94%29.68 "Hg4 mi
6:50 pm59 °FRain. Broken clouds.12 mph88%29.68 "Hg3 mi
6:20 pm61 °FRain. Broken clouds.16 mph83%29.68 "Hg2 mi
5:50 pm63 °FSprinkles. Broken clouds.12 mph73%29.68 "HgN/A
5:20 pm63 °FBroken clouds.14 mph68%29.68 "HgN/A
4:50 pm64 °FPartly sunny.14 mph64%29.68 "HgN/A
4:20 pm63 °FPartly sunny.15 mph68%29.71 "HgN/A
3:50 pm64 °FScattered showers. Scattered clouds.12 mph64%29.71 "HgN/A
3:20 pm64 °FScattered clouds.16 mph68%29.71 "HgN/A
2:50 pm64 °FScattered clouds.12 mph64%29.71 "HgN/A
1:50 pm64 °FScattered clouds.14 mph68%29.74 "HgN/A
1:20 pm64 °FScattered clouds.15 mph64%29.74 "HgN/A
12:50 pm64 °FPartly sunny.15 mph64%29.74 "HgN/A
12:20 pm64 °FPartly sunny.13 mph64%29.77 "HgN/A
11:50 am61 °FPartly sunny.12 mph72%29.77 "HgN/A
11:20 am63 °FPartly sunny.12 mph64%29.77 "HgN/A
10:50 am63 °FScattered clouds.13 mph64%29.77 "HgN/A
10:20 am63 °FScattered clouds.15 mph68%29.77 "HgN/A
9:50 am63 °FScattered clouds.15 mph64%29.77 "HgN/A
9:20 am64 °FScattered clouds.12 mph64%29.77 "HgN/A
Weather by CustomWeather, © 2017

See weather overviewHow to use our weather pages